Weather reports worldwide

Advertisment
Messina, Italy (16420): temperature & dewpoint: 15.05.2019 05:00:00 - 21.05.2019 05:00:00 (CEST)Messina, Italy (16420): wind speed: 15.05.2019 05:00:00 - 21.05.2019 05:00:00 (CEST)Messina, Italy (16420): wind direction: 15.05.2019 05:00:00 - 21.05.2019 05:00:00 (CEST)Messina, Italy (16420): reduced air pressure: 15.05.2019 05:00:00 - 21.05.2019 05:00:00 (CEST)Messina, Italy (16420): visibility: 15.05.2019 05:00:00 - 21.05.2019 05:00:00 (CEST)Messina, Italy (16420): sunshine duration: 15.05.2019 05:00:00 - 21.05.2019 05:00:00 (CEST)
Date & Time tt [°C] td [°C] ff [km/h] ff [kn] dd ppp [hPa] vv [km] sd [min]
21.05.2019 05:00:00 15,8 13,8 2 1 NNE 1014,6 10 -
21.05.2019 04:00:00 15,8 13,5 8 4 N 1014,9 10 -
21.05.2019 03:00:00 16,0 13,5 5 3 N 1015,2 10 -
21.05.2019 02:00:00 16,4 13,7 8 4 ENE 1015,2 10 -
21.05.2019 01:00:00 16,6 12,6 9 5 NE 1015,0 10 -
21.05.2019 00:00:00 16,8 12,7 9 5 ENE 1014,6 10 -
20.05.2019 23:00:00 16,8 11,9 9 5 NE 1014,4 10 -
20.05.2019 22:00:00 17,0 12,1 8 4 N 1014,3 10 -
20.05.2019 21:00:00 17,4 12,9 8 4 N 1013,5 10 -
20.05.2019 20:00:00 17,6 10,7 11 6 NNE 1013,2 20 0
20.05.2019 19:00:00 18,2 5,8 11 6 ENE 1013,0 20 18
20.05.2019 18:00:00 18,6 11,2 9 5 NNE 1013,1 10 6
20.05.2019 17:00:00 18,8 10,9 15 8 NE 1013,2 10 0
20.05.2019 16:00:00 18,8 12,6 21 11 NE 1013,0 10 48
20.05.2019 15:00:00 18,8 13,2 21 11 NE 1013,0 10 36
20.05.2019 14:00:00 18,8 13,2 15 8 NE 1012,8 10 48
20.05.2019 13:00:00 19,8 12,6 22 12 ENE 1012,4 10 60
20.05.2019 12:00:00 19,8 11,8 22 12 ENE 1012,4 10 60
20.05.2019 11:00:00 19,2 12,0 9 5 N 1012,5 10 60
20.05.2019 10:00:00 18,2 13,1 16 9 ENE 1011,6 18 60
20.05.2019 09:00:00 16,8 13,5 9 5 NE 1011,5 10 12
20.05.2019 08:00:00 15,6 13,6 2 1 ESE 1011,5 10 0
20.05.2019 07:00:00 15,8 14,8 9 5 ENE 1010,6 10 -
20.05.2019 06:00:00 16,0 14,0 9 5 NW 1010,4 10 -
20.05.2019 05:00:00 16,0 12,9 8 4 NW 1010,3 10 -
20.05.2019 04:00:00 16,0 13,5 11 6 NW 1010,4 10 -
20.05.2019 03:00:00 16,2 13,5 9 5 N 1010,4 10 -
20.05.2019 02:00:00 16,0 12,9 5 3 N 1010,5 10 -
20.05.2019 01:00:00 16,2 13,3 4 2 NNW 1010,7 10 -
20.05.2019 00:00:00 16,4 13,7 8 4 NE 1010,7 10 -
19.05.2019 23:00:00 16,6 13,5 5 3 NNE 1010,8 10 -
19.05.2019 22:00:00 16,8 13,7 5 3 N 1010,5 10 -
19.05.2019 21:00:00 16,8 13,7 4 2 N 1009,5 10 -
19.05.2019 20:00:00 17,4 13,7 13 7 ENE 1009,4 10 0
19.05.2019 19:00:00 17,8 13,9 11 6 NNE 1008,6 20 18
19.05.2019 18:00:00 18,6 13,0 13 7 WNW 1008,3 20 60
19.05.2019 17:00:00 19,2 11,7 13 7 N 1008,1 20 60
19.05.2019 16:00:00 20,0 11,0 15 8 E 1007,8 20 60
19.05.2019 15:00:00 19,2 11,3 15 8 NNE 1007,4 20 60
19.05.2019 14:00:00 18,8 10,4 15 8 NW 1007,4 20 48
19.05.2019 13:00:00 18,2 11,7 15 8 NE 1007,1 20 18
19.05.2019 12:00:00 18,2 12,7 13 7 NNE 1006,3 20 30
19.05.2019 11:00:00 18,0 12,2 15 8 N 1006,2 10 54
19.05.2019 10:00:00 18,0 13,1 9 5 NNE 1005,6 10 54
19.05.2019 09:00:00 17,0 13,5 5 3 N 1005,4 16 0
19.05.2019 08:00:00 17,0 14,5 5 3 NNE 1005,4 10 24
19.05.2019 07:00:00 16,0 14,4 4 2 NNE 1005,4 10 0
19.05.2019 06:00:00 16,0 14,2 8 4 NNE 1005,4 10 -
19.05.2019 05:00:00 16,8 14,1 4 2 NNE 1005,5 10 -
19.05.2019 04:00:00 16,8 13,7 11 6 N 1005,5 10 -
19.05.2019 03:00:00 16,8 14,1 8 4 NE 1005,6 10 -
19.05.2019 02:00:00 16,8 13,9 8 4 N 1006,4 10 -
19.05.2019 01:00:00 16,4 13,7 4 2 N 1007,4 10 -
19.05.2019 00:00:00 16,4 13,9 0 0 N 1007,4 10 -
18.05.2019 23:00:00 16,6 13,3 4 2 N 1007,4 10 -
18.05.2019 22:00:00 17,0 12,7 9 5 WSW 1007,3 10 -
18.05.2019 21:00:00 17,2 12,9 11 6 WSW 1007,1 10 -
18.05.2019 20:00:00 17,6 12,7 13 7 SW 1006,7 20 0
18.05.2019 19:00:00 18,0 12,5 13 7 SSW 1007,1 20 0
18.05.2019 18:00:00 18,8 12,3 13 7 SW 1006,5 20 30
18.05.2019 17:00:00 18,2 12,0 16 9 SW 1008,0 20 6
18.05.2019 16:00:00 18,8 12,3 18 10 SW 1007,8 20 18
18.05.2019 15:00:00 19,0 14,1 21 11 SW 1008,2 20 60
18.05.2019 14:00:00 18,6 14,5 22 12 SW 1008,4 20 54
18.05.2019 13:00:00 17,8 14,3 26 14 SW 1007,8 20 54
18.05.2019 12:00:00 17,2 14,7 31 17 SSW 1007,5 20 0
18.05.2019 11:00:00 16,6 13,9 24 13 SSW 1008,3 20 0
18.05.2019 10:00:00 16,4 13,0 22 12 SSW 1008,3 10 0
18.05.2019 09:00:00 16,4 12,4 16 9 SSW 1008,4 18 12
18.05.2019 08:00:00 15,6 12,9 13 7 SSW 1008,4 10 6
18.05.2019 07:00:00 15,4 12,0 15 8 SSW 1008,6 10 0
18.05.2019 06:00:00 15,0 13,7 13 7 SSW 1008,5 10 -
18.05.2019 05:00:00 15,0 13,4 15 8 SSW 1008,6 10 -
18.05.2019 04:00:00 15,4 13,8 15 8 SSW 1009,2 10 -
18.05.2019 03:00:00 15,8 13,3 15 8 SSW 1009,4 10 -
18.05.2019 02:00:00 16,0 13,5 21 11 SSW 1009,4 10 -
18.05.2019 01:00:00 16,0 13,5 18 10 SSW 1009,4 10 -
18.05.2019 00:00:00 16,0 13,3 18 10 SW 1009,5 10 -
17.05.2019 23:00:00 15,8 12,9 18 10 SSW 1009,7 20 -
17.05.2019 22:00:00 15,8 12,7 18 10 SSW 1009,6 20 -
17.05.2019 21:00:00 16,4 13,0 18 10 SSW 1009,3 20 -
17.05.2019 20:00:00 16,4 12,0 22 12 SSW 1009,2 20 0
17.05.2019 19:00:00 17,0 10,6 18 10 SSW 1009,4 20 60
17.05.2019 18:00:00 17,8 8,9 26 14 SSW 1009,4 20 60
17.05.2019 17:00:00 18,6 6,4 24 13 SSW 1009,4 20 60
17.05.2019 16:00:00 18,6 7,1 22 12 SSW 1009,7 20 -
17.05.2019 15:00:00 18,4 7,8 22 12 SSW 1010,1 20 60
17.05.2019 14:00:00 18,2 9,0 21 11 SSW 1010,4 20 60
17.05.2019 13:00:00 18,2 7,9 16 9 SSW 1010,3 20 60
17.05.2019 12:00:00 18,0 8,8 18 10 SSW 1010,6 20 60
17.05.2019 11:00:00 17,0 9,2 13 7 SSW 1010,6 20 60
17.05.2019 10:00:00 16,8 10,7 11 6 SSW 1010,8 20 60
17.05.2019 09:00:00 15,8 11,2 8 4 SSW 1010,6 20 60
17.05.2019 08:00:00 15,2 11,2 9 5 SSE 1010,4 20 60
17.05.2019 07:00:00 14,0 10,8 4 2 NNW 1009,8 20 18
17.05.2019 06:00:00 14,0 10,6 8 4 N 1009,4 10 -
17.05.2019 05:00:00 14,0 9,7 8 4 NW 1009,4 10 -
17.05.2019 04:00:00 14,0 9,7 9 5 NW 1008,0 10 -
17.05.2019 03:00:00 14,2 9,6 15 8 WNW 1009,7 10 -
17.05.2019 02:00:00 14,2 10,6 8 4 NE 1010,0 10 -
17.05.2019 01:00:00 14,2 11,9 9 5 NW 1010,3 10 -
17.05.2019 00:00:00 14,2 11,9 4 2 NNW 1010,0 10 -
16.05.2019 23:00:00 14,6 12,1 9 5 NNW 1009,5 10 -
16.05.2019 22:00:00 14,6 12,1 9 5 NNW 1009,5 10 -
16.05.2019 21:00:00 14,0 11,9 11 6 NW 1008,6 10 -
16.05.2019 20:00:00 14,0 12,1 11 6 NW 1006,7 10 0
16.05.2019 19:00:00 14,0 11,2 16 9 WNW 1006,7 10 0
16.05.2019 18:00:00 14,8 10,6 22 12 WNW 1006,3 10 24
16.05.2019 17:00:00 13,8 11,5 21 11 NW 1006,1 10 0
16.05.2019 16:00:00 13,6 11,7 26 14 NW 1006,0 10 0
16.05.2019 15:00:00 16,4 10,3 18 10 WNW 1005,6 10 0
16.05.2019 14:00:00 15,8 11,0 5 3 NNE 1006,2 10 0
16.05.2019 13:00:00 14,6 13,1 9 5 NNE 1006,6 4,0 0
16.05.2019 12:00:00 13,4 12,6 11 6 NNE 1007,0 4,0 0
16.05.2019 11:00:00 13,4 12,9 5 3 N 1007,4 4,0 0
16.05.2019 10:00:00 13,4 12,9 4 2 E 1007,5 4,0 0
16.05.2019 09:00:00 13,6 13,0 8 4 NW 1007,5 4,0 0
16.05.2019 08:00:00 14,2 13,4 15 8 SW 1007,3 4,0 0
16.05.2019 07:00:00 14,8 12,5 16 9 SW 1006,4 10 0
16.05.2019 06:00:00 14,6 11,4 16 9 SW 1006,4 10 -
16.05.2019 05:00:00 14,2 11,7 13 7 SW 1007,0 10 -
16.05.2019 04:00:00 14,2 11,5 11 6 SW 1007,5 10 -
16.05.2019 03:00:00 13,4 12,0 8 4 WSW 1008,3 10 -
16.05.2019 02:00:00 13,4 12,5 9 5 WSW 1008,7 10 -
16.05.2019 01:00:00 14,0 12,7 8 4 SW 1009,6 10 -
16.05.2019 00:00:00 13,6 13,0 8 4 WSW 1010,2 10 -
15.05.2019 23:00:00 13,8 10,4 11 6 NW 1010,4 4,0 -
15.05.2019 22:00:00 15,2 11,4 16 9 SW 1009,7 10 -
15.05.2019 21:00:00 14,8 9,8 13 7 WSW 1009,7 10 -
15.05.2019 20:00:00 15,4 9,1 15 8 SW 1009,6 10 0
15.05.2019 19:00:00 15,2 13,2 15 8 SW 1009,5 10 0
15.05.2019 18:00:00 16,0 12,7 9 5 SSW 1010,3 10 0
15.05.2019 17:00:00 16,2 13,3 4 2 S 1010,3 10 0
15.05.2019 16:00:00 16,2 12,4 9 5 SSE 1010,4 10 0
15.05.2019 15:00:00 15,4 10,4 9 5 WSW 1010,7 10 0
15.05.2019 14:00:00 16,8 13,3 15 8 SSW 1011,2 10 0
15.05.2019 13:00:00 16,4 11,1 16 9 SSW 1010,8 10 24
15.05.2019 12:00:00 17,0 9,4 13 7 SSW 1010,8 10 18
15.05.2019 11:00:00 17,2 7,8 5 3 SSW 1011,2 20 42
15.05.2019 10:00:00 17,4 7,7 8 4 E 1010,6 20 54
15.05.2019 09:00:00 16,2 9,4 4 2 ENE 1010,5 20 60
15.05.2019 08:00:00 14,4 11,0 4 2 SSW 1010,5 20 18
15.05.2019 07:00:00 13,4 10,9 4 2 W 1010,5 20 0
15.05.2019 06:00:00 13,0 11,1 4 2 WNW 1010,4 10 -
15.05.2019 05:00:00 13,0 11,7 4 2 W 1010,6 10 -

tt = temperature
td = dewpoint
ff = wind speed
dd = wind direction
ppp = reduced air pressure
vv = visibility
sd = sunshine duration

Next stations